Location: CAO
(44.5093°N, 80.3921°W)
Time: 09:47:05
(UTC-05:00)

ARIANE 6 FM1 Upper Stage - Pass Details

Date: 24 January 2026
Orbit: 522 x 609 km, 62.0° (Epoch: 8 February)

Event Time Altitude Azimuth Distance (km) Brightness Sun altitude
Rises 20:36:50 0° 274° (W) 2,691 7.2 -35.0°
Reaches altitude 10° 20:40:06 10° 302° (WNW) 1,786 5.9 -35.5°
Enters shadow 20:40:18 11° 305° (NW) 1,750 5.8 -35.6°
